TimePDT,TemperatureF,Dew PointF,Humidity,Sea Level PressureIn,VisibilityMPH,Wind Direction,Wind SpeedMPH,Gust SpeedMPH,PrecipitationIn,Events,Conditions,WindDirDegrees,DateUTC
12:56 AM,54.0,53.1,97,29.86,1.0,SSW,4.6,-,N/A,,Overcast,210,2013-08-23 07:56:00
1:56 AM,55.0,54.0,96,29.87,1.0,SSW,6.9,-,N/A,,Overcast,200,2013-08-23 08:56:00
2:56 AM,55.0,54.0,96,29.88,1.0,South,4.6,-,N/A,,Overcast,180,2013-08-23 09:56:00
3:56 AM,55.9,55.0,97,29.88,1.0,SSE,4.6,-,N/A,,Overcast,150,2013-08-23 10:56:00
4:56 AM,55.9,54.0,93,29.88,1.0,South,3.5,-,N/A,,Overcast,170,2013-08-23 11:56:00
5:56 AM,57.9,55.0,90,29.87,1.0,SSW,5.8,-,N/A,,Overcast,200,2013-08-23 12:56:00
6:56 AM,57.9,55.0,90,29.88,10.0,SE,5.8,-,N/A,,Overcast,130,2013-08-23 13:56:00
7:56 AM,60.1,55.9,86,29.89,8.0,SE,6.9,-,0.00,Rain,Light Rain,140,2013-08-23 14:56:00
8:56 AM,61.0,57.0,87,29.88,9.0,East,8.1,-,0.00,,Overcast,100,2013-08-23 15:56:00
9:56 AM,61.0,55.9,83,29.90,10.0,ESE,8.1,-,N/A,,Overcast,120,2013-08-23 16:56:00
10:56 AM,66.0,57.0,73,29.91,10.0,SE,13.8,-,N/A,,Overcast,130,2013-08-23 17:56:00
11:56 AM,68.0,55.0,63,29.91,10.0,SE,13.8,-,N/A,,Overcast,140,2013-08-23 18:56:00
12:56 PM,63.0,54.0,72,29.91,10.0,WSW,10.4,-,N/A,,Overcast,250,2013-08-23 19:56:00
1:56 PM,66.0,55.0,68,29.91,10.0,NNW,3.5,-,N/A,,Overcast,330,2013-08-23 20:56:00
2:56 PM,64.0,54.0,70,29.91,10.0,WNW,4.6,-,N/A,,Overcast,290,2013-08-23 21:56:00
3:56 PM,63.0,55.0,75,29.91,10.0,Calm,Calm,-,N/A,,Mostly Cloudy,0,2013-08-23 22:56:00
4:56 PM,64.0,55.0,73,29.89,10.0,NNW,3.5,-,N/A,,Mostly Cloudy,330,2013-08-23 23:56:00
5:56 PM,68.0,54.0,61,29.88,10.0,Variable,3.5,-,N/A,,Mostly Cloudy,0,2013-08-24 00:56:00
6:56 PM,69.1,55.0,61,29.87,10.0,Calm,Calm,-,N/A,,Mostly Cloudy,0,2013-08-24 01:56:00
7:56 PM,57.0,52.0,83,29.88,10.0,NNW,3.5,-,N/A,,Mostly Cloudy,330,2013-08-24 02:56:00
8:56 PM,57.9,53.1,84,29.89,10.0,Calm,Calm,-,N/A,,Mostly Cloudy,0,2013-08-24 03:56:00
9:40 PM,59.0,53.6,82,29.89,10.0,WSW,4.6,-,0.00,Rain,Light Rain,250,2013-08-24 04:40:00
9:56 PM,57.9,53.1,84,29.90,10.0,WSW,4.6,-,0.00,Rain,Light Rain,240,2013-08-24 04:56:00
10:56 PM,57.0,53.1,87,29.91,10.0,SSW,4.6,-,0.00,,Mostly Cloudy,210,2013-08-24 05:56:00
11:56 PM,57.0,54.0,89,29.91,10.0,Calm,Calm,-,N/A,,Overcast,0,2013-08-24 06:56:00